• en Suisse
  • Liste des pays
  • À 7 jours
  • Température de l'eau
  • Carte satellitaire
  • Carte météo
  • Widgets météo
  • user-avatar
    Se connecter

    Météo par heure à Abu Dhabi

    Ce jour, 17 Août, Vendredi

    Heure Température Précipitation Vent Pression Humidité
    00:00 +37°C° 0 mm 3 m/s 748 mmHg 57%
    01:00 +36°C° 0 mm 3 m/s 748 mmHg 58%
    02:00 +36°C° 0 mm 3 m/s 748 mmHg 60%
    03:00 +36°C° 0 mm 3 m/s 748 mmHg 61%
    04:00 +35°C° 0 mm 3 m/s 748 mmHg 63%
    05:00 +35°C° 0 mm 3 m/s 748 mmHg 62%
    06:00 +36°C° 0 mm 2 m/s 748 mmHg 60%
    07:00 +36°C° 0 mm 2 m/s 749 mmHg 59%
    08:00 +38°C° 0 mm 2 m/s 749 mmHg 49%
    09:00 +40°C° 0 mm 1 m/s 749 mmHg 40%
    10:00 +42°C° 0 mm 1 m/s 749 mmHg 30%
    11:00 +45°C° 0 mm 2 m/s 749 mmHg 26%
    12:00 +46°C° 0 mm 2 m/s 748 mmHg 21%
    13:00 +48°C° 0 mm 3 m/s 748 mmHg 17%
    14:00 +49°C° 0 mm 4 m/s 748 mmHg 19%
    15:00 +48°C° 0 mm 5 m/s 747 mmHg 21%
    16:00 +48°C° 0 mm 5 m/s 747 mmHg 22%
    17:00 +46°C° 0 mm 5 m/s 746 mmHg 29%
    18:00 +43°C° 0 mm 4 m/s 746 mmHg 35%
    19:00 +41°C° 0 mm 4 m/s 746 mmHg 42%
    20:00 +40°C° 0 mm 4 m/s 746 mmHg 45%
    21:00 +38°C° 0 mm 3 m/s 747 mmHg 49%
    22:00 +37°C° 0 mm 2 m/s 747 mmHg 52%
    23:00 +37°C° 0 mm 2 m/s 747 mmHg 54%

    Demain, 18 Août, Samedi

    Heure Température Précipitation Vent Pression Humidité
    00:00 +36°C° 0 mm 2 m/s 747 mmHg 56%
    01:00 +35°C° 0 mm 1 m/s 746 mmHg 58%
    02:00 +34°C° 0 mm 1 m/s 746 mmHg 59%
    03:00 +35°C° 0 mm 2 m/s 746 mmHg 60%
    04:00 +35°C° 0 mm 2 m/s 746 mmHg 61%
    05:00 +35°C° 0 mm 2 m/s 746 mmHg 61%
    06:00 +35°C° 0 mm 2 m/s 746 mmHg 61%
    07:00 +35°C° 0 mm 2 m/s 747 mmHg 60%
    08:00 +38°C° 0 mm 2 m/s 747 mmHg 49%
    09:00 +40°C° 0 mm 2 m/s 747 mmHg 38%
    10:00 +43°C° 0 mm 2 m/s 747 mmHg 27%
    11:00 +45°C° 0 mm 3 m/s 747 mmHg 24%
    12:00 +47°C° 0 mm 3 m/s 747 mmHg 21%
    13:00 +49°C° 0 mm 4 m/s 746 mmHg 18%
    14:00 +48°C° 0 mm 4 m/s 746 mmHg 22%
    15:00 +48°C° 0 mm 4 m/s 745 mmHg 25%
    16:00 +47°C° 0 mm 5 m/s 745 mmHg 28%
    17:00 +44°C° 0 mm 4 m/s 745 mmHg 32%
    18:00 +42°C° 0 mm 4 m/s 745 mmHg 36%
    19:00 +41°C° 0 mm 4 m/s 745 mmHg 40%
    20:00 +40°C° 0 mm 4 m/s 745 mmHg 44%
    21:00 +38°C° 0 mm 3 m/s 746 mmHg 48%
    22:00 +37°C° 0 mm 2 m/s 746 mmHg 52%
    23:00 +36°C° 0 mm 2 m/s 746 mmHg 54%

    Après-demain, 19 Août, Dimanche

    Heure Température Précipitation Vent Pression Humidité
    00:00 +35°C° 0 mm 1 m/s 746 mmHg 55%
    01:00 +34°C° 0 mm 1 m/s 746 mmHg 57%
    02:00 +34°C° 0 mm 1 m/s 746 mmHg 56%
    03:00 +35°C° 0 mm 2 m/s 746 mmHg 56%
    04:00 +35°C° 0 mm 3 m/s 746 mmHg 56%
    05:00 +35°C° 0 mm 3 m/s 746 mmHg 56%
    06:00 +35°C° 0 mm 2 m/s 746 mmHg 57%
    07:00 +35°C° 0 mm 2 m/s 747 mmHg 57%
    08:00 +38°C° 0 mm 2 m/s 747 mmHg 48%
    09:00 +40°C° 0 mm 2 m/s 747 mmHg 39%
    10:00 +42°C° 0 mm 2 m/s 747 mmHg 29%
    11:00 +45°C° 0 mm 2 m/s 747 mmHg 26%
    12:00 +47°C° 0 mm 3 m/s 747 mmHg 22%
    13:00 +49°C° 0 mm 4 m/s 746 mmHg 19%
    14:00 +49°C° 0 mm 5 m/s 746 mmHg 22%
    15:00 +48°C° 0 mm 5 m/s 745 mmHg 25%
    16:00 +47°C° 0 mm 6 m/s 745 mmHg 28%
    17:00 +46°C° 0 mm 6 m/s 745 mmHg 34%
    18:00 +44°C° 0 mm 6 m/s 745 mmHg 39%
    19:00 +41°C° 0 mm 6 m/s 745 mmHg 44%
    20:00 +40°C° 0 mm 5 m/s 746 mmHg 46%
    21:00 +40°C° 0 mm 5 m/s 746 mmHg 47%
    22:00 +38°C° 0 mm 4 m/s 747 mmHg 48%
    23:00 +38°C° 0 mm 3 m/s 747 mmHg 49%

    20 Août, Lundi

    Heure Température Précipitation Vent Pression Humidité
    00:00 +38°C° 0 mm 3 m/s 746 mmHg 49%
    01:00 +37°C° 0 mm 3 m/s 746 mmHg 49%
    02:00 +37°C° 0 mm 3 m/s 746 mmHg 50%
    03:00 +37°C° 0 mm 4 m/s 746 mmHg 51%
    04:00 +36°C° 0 mm 4 m/s 746 mmHg 52%
    05:00 +36°C° 0 mm 4 m/s 746 mmHg 52%
    06:00 +37°C° 0 mm 3 m/s 747 mmHg 52%
    07:00 +37°C° 0 mm 3 m/s 747 mmHg 52%
    08:00 +39°C° 0 mm 2 m/s 748 mmHg 43%
    09:00 +41°C° 0 mm 2 m/s 748 mmHg 35%
    10:00 +43°C° 0 mm 1 m/s 748 mmHg 26%
    11:00 +46°C° 0 mm 2 m/s 748 mmHg 23%
    12:00 +47°C° 0 mm 3 m/s 748 mmHg 19%
    13:00 +50°C° 0 mm 4 m/s 747 mmHg 16%
    14:00 +49°C° 0 mm 5 m/s 747 mmHg 19%
    15:00 +49°C° 0 mm 5 m/s 747 mmHg 21%
    16:00 +48°C° 0 mm 6 m/s 746 mmHg 24%
    17:00 +46°C° 0 mm 6 m/s 746 mmHg 30%
    18:00 +44°C° 0 mm 6 m/s 746 mmHg 37%
    19:00 +41°C° 0 mm 5 m/s 747 mmHg 43%
    20:00 +41°C° 0 mm 5 m/s 747 mmHg 44%
    21:00 +40°C° 0 mm 5 m/s 747 mmHg 45%
    22:00 +40°C° 0 mm 4 m/s 748 mmHg 46%
    23:00 +40°C° 0 mm 4 m/s 747 mmHg 46%

    21 Août, Mardi

    Heure Température Précipitation Vent Pression Humidité
    00:00 +38°C° 0 mm 4 m/s 747 mmHg 46%
    01:00 +38°C° 0 mm 4 m/s 747 mmHg 45%
    02:00 +38°C° 0 mm 4 m/s 747 mmHg 46%
    03:00 +37°C° 0 mm 4 m/s 747 mmHg 47%
    04:00 +37°C° 0 mm 4 m/s 747 mmHg 48%
    05:00 +37°C° 0 mm 4 m/s 747 mmHg 45%
    06:00 +37°C° 0 mm 4 m/s 748 mmHg 42%
    07:00 +37°C° 0 mm 3 m/s 748 mmHg 39%
    08:00 +39°C° 0 mm 3 m/s 749 mmHg 34%
    09:00 +42°C° 0 mm 3 m/s 749 mmHg 29%
    10:00 +43°C° 0 mm 2 m/s 749 mmHg 24%
    11:00 +46°C° 0 mm 2 m/s 749 mmHg 20%
    12:00 +48°C° 0 mm 2 m/s 748 mmHg 16%
    13:00 +49°C° 0 mm 2 m/s 748 mmHg 13%
    14:00 +50°C° 0 mm 4 m/s 747 mmHg 14%
    15:00 +50°C° 0 mm 5 m/s 747 mmHg 15%
    16:00 +51°C° 0 mm 6 m/s 746 mmHg 17%
    17:00 +47°C° 0 mm 6 m/s 746 mmHg 24%
    18:00 +45°C° 0 mm 6 m/s 747 mmHg 31%
    19:00 +41°C° 0 mm 6 m/s 747 mmHg 39%
    20:00 +41°C° 0 mm 5 m/s 747 mmHg 42%
    21:00 +40°C° 0 mm 5 m/s 747 mmHg 44%
    22:00 +38°C° 0 mm 4 m/s 748 mmHg 47%
    23:00 +38°C° 0 mm 4 m/s 747 mmHg 48%

    22 Août, Mercredi

    Heure Température Précipitation Vent Pression Humidité
    00:00 +37°C° 0 mm 4 m/s 747 mmHg 49%
    01:00 +37°C° 0 mm 4 m/s 747 mmHg 50%
    02:00 +37°C° 0 mm 4 m/s 747 mmHg 51%
    03:00 +36°C° 0 mm 3 m/s 747 mmHg 52%
    04:00 +36°C° 0 mm 3 m/s 747 mmHg 53%
    05:00 +36°C° 0 mm 3 m/s 748 mmHg 49%
    06:00 +36°C° 0 mm 3 m/s 748 mmHg 46%
    07:00 +37°C° 0 mm 3 m/s 749 mmHg 42%
    08:00 +39°C° 0 mm 3 m/s 749 mmHg 36%
    09:00 +42°C° 0 mm 3 m/s 749 mmHg 31%
    10:00 +44°C° 0 mm 3 m/s 749 mmHg 25%
    11:00 +46°C° 0 mm 3 m/s 749 mmHg 21%
    12:00 +48°C° 0 mm 3 m/s 748 mmHg 18%
    13:00 +50°C° 0 mm 3 m/s 748 mmHg 14%
    14:00 +50°C° 0 mm 4 m/s 747 mmHg 16%
    15:00 +50°C° 0 mm 5 m/s 747 mmHg 18%
    16:00 +49°C° 0 mm 6 m/s 746 mmHg 20%
    17:00 +47°C° 0 mm 6 m/s 746 mmHg 28%
    18:00 +43°C° 0 mm 5 m/s 747 mmHg 35%
    19:00 +41°C° 0 mm 5 m/s 747 mmHg 42%
    20:00 +40°C° 0 mm 4 m/s 747 mmHg 44%
    21:00 +40°C° 0 mm 4 m/s 747 mmHg 46%
    22:00 +38°C° 0 mm 3 m/s 748 mmHg 47%
    23:00 +38°C° 0 mm 2 m/s 747 mmHg 48%
    Voir plus